IRIDIUM 122

Last updated on Tue Sep 22 2026 00:03:21 GMT+0000 (Coordinated Universal Time)

1 42957U 17061C 26264.06475378 .00000118 00000+0 34993-4 0 9993 2 42957 86.4022 345.1251 0002240 92.6862 267.4591 14.34218043468522
UTC large
Height (km)
Speed (km/s)
/
Latitude / Longitude
Inclination (degrees)
Orbital Period (minutes)
Azimuth
Elevation
Range (km)
Doppler Factor

Next 0 passes for location: London (51.5072 / 0.1276)

No passes found over London.
IRIDIUM 122